Theta_e
320 321 321 321 321 321 322 321 320 317 314 314 314 315 315 315 314 301 296 303 308 315 314 306 301 300 300 298 298 295 286 283 284 286 286 289 288 290 290 288 289 291 292 297 300
320 320 321 321 320 321 322 321 320 318 316 314 312 314 314 313 301 297 306 312 313 313 303 297 295 297 292 294 294 291 285 284 286 284 285 288 289 288 287 287 287 289 296 299 299
320 320 320 320 320 321 322 321 319 318 316 313 312 313 314 309 296 294 310 311 312 309 303 299 297 296 291 292 290 290 288 288 288 290 289 289 288 289 286 286 288 288 293 296 297
319 320 320 320 321 322 322 320 318 318 316 313 312 314 313 301 287 296 311 311 313 307 301 297 293 290 289 289 292 287 290 290 291 291 289 288 290 287 287 288 291 290 296 297 296
319 319 320 320 320 321 321 319 318 317 315 312 314 315 303 292 290 299 311 307 304 302 298 295 291 290 287 289 290 288 289 291 290 290 289 291 287 287 288 290 290 293 294 295 296
319 319 320 320 320 320 320 318 316 315 314 311 314 312 296 288 298 300 301 302 301 300 297 296 293 294 290 289 288 289 290 289 290 290 291 288 287 288 288 290 291 292 292 293 295
319 319 319 319 320 319 317 316 314 313 312 310 313 303 293 290 297 298 301 299 300 300 297 298 297 294 292 288 292 290 286 288 288 290 288 288 284 285 288 291 290 291 292 292 294
319 318 318 319 318 316 316 315 312 311 311 312 311 297 288 298 295 298 299 300 301 301 299 299 299 295 292 292 290 286 285 280 288 289 289 286 281 287 288 288 289 289 291 292 293
318 317 317 316 315 316 315 315 311 311 311 311 297 293 287 301 295 297 298 297 298 299 299 299 296 291 292 287 284 286 280 281 283 288 287 284 281 288 288 288 287 288 288 291 292
316 315 315 315 315 315 315 315 312 308 306 302 298 292 292 289 294 296 297 299 296 296 296 293 290 285 284 283 279 278 279 281 280 284 285 282 282 286 289 287 287 286 287 289 291
315 315 315 315 314 314 308 304 296 296 292 288 288 289 290 294 297 296 297 296 296 293 284 289 284 277 279 281 283 282 280 279 284 285 282 282 282 285 288 286 285 285 285 287 289
314 313 313 313 313 311 301 294 292 293 288 291 290 290 291 293 291 294 298 291 287 284 289 287 280 285 288 286 283 281 279 277 283 284 282 281 281 285 286 286 285 285 284 287 288
312 312 312 313 313 301 295 294 299 297 290 288 289 289 289 293 290 290 293 291 283 281 283 283 285 289 286 283 282 281 278 277 277 281 281 278 276 282 284 286 287 286 287 288 288
311 311 311 312 306 301 294 299 299 296 278 286 286 289 292 293 289 294 294 290 287 278 282 282 287 286 283 281 282 278 281 281 279 272 269 277 268 276 280 282 284 285 284 285 287
310 309 310 312 301 295 297 300 297 294 270 287 286 292 292 290 290 290 294 291 284 281 281 280 282 281 280 281 283 279 282 279 277 269 269 272 266 275 279 279 281 283 284 285 286
308 308 310 304 299 298 300 299 295 279 270 279 287 287 286 290 289 291 290 291 289 285 283 281 285 283 282 283 282 283 278 277 275 267 263 266 269 273 277 279 280 282 283 285 285
308 307 304 302 295 300 299 294 279 273 281 278 280 285 283 283 286 287 286 284 279 274 275 279 279 282 284 279 282 279 270 265 268 266 266 262 268 273 280 280 283 283 283 283 284
309 308 304 301 300 299 295 282 270 278 273 286 284 284 281 282 282 284 282 278 282 280 271 269 270 275 283 279 277 277 272 269 263 265 267 263 266 276 281 280 282 283 282 283 283
310 302 299 298 301 298 286 272 273 278 285 281 283 276 275 282 279 279 279 278 280 279 273 270 273 280 281 282 279 276 267 275 264 259 262 268 273 280 279 275 279 280 282 282 283
300 298 295 300 300 291 280 277 276 286 288 284 277 279 271 280 278 276 278 281 281 281 279 277 269 275 279 281 279 275 277 267 265 261 260 266 264 274 272 271 273 278 279 279 282
298 288 297 300 294 284 272 274 281 287 289 282 280 277 279 274 277 275 278 282 283 281 282 276 270 271 277 271 270 269 267 268 269 271 265 261 269 275 275 271 275 277 278 277 279
293 277 297 296 279 282 280 282 286 285 288 286 284 283 279 279 278 273 278 281 284 280 277 279 276 267 272 278 280 277 271 273 267 265 267 267 268 275 273 269 270 274 277 277 275
283 284 294 293 272 275 283 282 284 283 283 282 281 284 284 275 273 280 281 284 285 282 279 279 269 263 270 274 275 272 276 277 271 273 267 265 272 272 268 270 271 271 274 277 276
287 275 280 287 286 278 279 279 278 284 284 284 283 283 282 274 279 273 280 283 284 283 288 284 277 270 268 268 269 269 274 276 273 262 269 271 275 275 274 272 273 273 275 279 280
285 282 280 270 279 279 281 280 277 275 283 284 279 281 278 271 276 271 279 281 282 285 283 280 275 275 275 274 272 275 273 273 272 273 270 276 275 279 280 282 284 280 275 274 279
281 279 280 280 281 280 279 278 277 278 281 279 276 281 281 275 279 277 280 280 280 281 279 280 275 270 271 277 278 275 278 277 276 277 275 276 277 284 284 275 274 278 282 280 277
289 289 284 280 279 276 276 280 280 282 282 284 283 282 282 281 284 286 286 285 285 282 280 278 275 270 271 272 270 270 274 277 277 278 278 273 278 283 280 276 279 278 278 279 279
Wind_Speed
14 15 16 16 16 16 15 13 12 9 8 8 9 9 11 12 10 4 6 6 8 16 14 7 5 2 3 3 3 3 4 2 4 5 2 2 3 4 2 3 3 5 4 4 14
14 15 16 16 16 16 15 15 12 10 8 8 8 8 9 9 0 8 6 11 11 10 6 6 2 1 3 2 3 4 4 1 3 2 4 2 4 2 2 2 2 4 7 13 13
12 13 14 16 16 16 15 15 13 11 7 7 7 7 9 5 3 3 12 12 10 8 4 4 5 2 3 2 3 2 3 2 3 3 5 2 3 1 2 3 4 6 11 11 9
11 12 13 14 15 15 16 15 13 12 7 6 6 7 5 1 1 3 12 12 12 5 5 3 2 1 3 3 1 3 3 2 3 4 3 3 6 4 4 5 4 4 14 12 11
9 11 12 13 15 15 15 15 14 11 6 5 6 6 1 5 2 6 8 10 6 4 3 3 2 2 3 4 2 2 2 3 2 3 2 3 3 5 7 9 4 9 9 10 9
11 11 12 13 15 16 16 16 14 9 4 5 6 6 1 3 4 7 5 5 7 6 5 6 2 2 4 3 3 1 2 3 1 1 2 3 3 6 6 5 8 6 9 9 9
11 11 12 13 15 16 16 16 12 5 3 4 5 3 7 3 3 6 6 2 3 3 2 3 4 4 1 3 0 2 2 0 2 1 1 2 4 8 8 2 5 8 8 9 9
11 11 11 13 14 16 16 15 7 3 4 4 3 1 3 1 3 6 7 1 3 2 2 3 5 5 4 2 2 2 2 2 1 1 1 1 7 2 2 6 7 7 7 8 9
10 11 11 13 15 16 15 11 5 5 4 3 1 2 2 1 3 5 3 3 6 1 1 2 2 3 2 3 4 6 1 2 2 1 1 2 7 5 2 3 7 7 7 8 8
9 10 12 13 16 15 14 4 4 4 3 2 3 5 4 4 4 6 4 4 2 3 2 2 4 4 5 5 2 2 3 3 4 0 2 5 14 14 15 9 13 10 8 8 9
9 10 12 12 15 17 6 3 6 6 10 4 1 1 3 7 3 4 4 6 2 2 3 3 7 2 2 2 2 0 1 3 4 1 3 6 10 17 15 8 9 8 9 9 4
9 11 12 12 11 17 5 7 3 3 4 2 1 2 1 2 3 7 8 3 6 3 5 6 4 2 3 3 2 2 1 5 4 3 4 7 15 20 11 7 5 5 6 9 8
9 11 12 11 7 6 7 4 3 2 4 2 1 3 3 4 3 6 5 2 5 5 4 5 2 2 3 4 4 2 2 2 4 8 3 7 9 6 3 4 5 7 6 6 9
9 12 12 16 4 3 4 2 2 2 7 7 3 3 1 1 3 2 2 2 6 3 2 5 2 3 4 3 3 1 3 1 2 6 3 5 8 8 2 2 2 5 6 7 7
10 13 10 11 1 4 2 3 1 3 6 2 4 1 3 3 2 2 1 1 3 1 6 4 2 3 4 2 3 2 3 1 3 3 5 6 5 11 3 3 5 6 6 7 7
8 13 9 4 4 0 3 3 3 9 3 5 4 5 5 6 1 1 1 2 3 3 4 2 0 3 1 2 2 2 4 6 4 4 4 4 5 8 4 5 4 4 7 8 7
7 8 6 2 1 3 2 2 7 7 4 5 3 3 1 4 4 5 4 4 2 6 4 4 2 1 3 1 2 6 6 4 6 5 6 4 2 12 6 1 8 9 9 8 8
6 7 3 3 3 3 2 8 7 3 5 3 1 2 4 5 3 6 3 2 4 3 3 4 8 1 4 2 4 1 6 6 6 3 5 4 7 8 6 1 4 7 9 8 8
6 0 2 5 4 2 6 6 8 6 2 2 3 6 6 4 2 5 2 3 1 2 6 3 5 1 3 2 3 3 1 2 6 2 4 5 8 10 1 4 2 7 9 9 9
1 2 2 7 4 5 8 4 2 3 3 1 3 3 1 4 4 5 2 2 2 2 3 2 4 2 2 2 3 5 1 4 4 1 5 6 6 8 5 8 6 9 10 8 8
3 4 3 6 5 7 5 4 2 6 2 3 1 2 0 2 1 2 3 1 3 2 4 4 5 6 3 5 8 2 2 2 3 5 6 3 8 8 9 9 12 12 9 10 9
2 3 4 4 7 3 3 3 1 2 3 3 2 3 5 1 1 1 4 5 4 6 3 3 4 3 10 2 2 5 7 5 6 7 5 2 11 5 7 6 7 10 10 7 6
3 1 4 4 5 2 2 1 2 1 1 1 0 1 3 4 1 5 4 2 5 5 5 4 2 4 9 5 4 4 5 4 3 1 9 4 10 2 4 6 7 7 9 10 7
3 3 5 5 2 6 4 0 2 4 2 2 1 2 1 1 3 4 2 1 5 5 4 4 4 8 9 8 4 3 5 7 6 4 4 14 24 7 9 8 7 9 10 10 9
4 2 5 0 4 4 2 5 3 3 3 1 5 4 5 2 3 4 3 4 3 6 4 5 7 6 11 10 7 13 14 9 15 15 13 27 24 15 18 19 17 11 7 7 11
3 3 3 3 1 3 1 2 5 3 4 3 4 1 5 6 6 6 5 2 7 4 7 4 7 3 8 12 15 20 20 19 23 25 24 28 35 20 14 7 8 10 13 12 11
3 3 5 1 2 4 4 4 4 5 4 3 5 4 10 7 6 5 7 8 11 7 7 6 4 2 21 5 6 20 21 29 26 19 21 23 33 21 20 12 13 10 11 13 11
Wind_Direction
19 13 9 10 9 9 4 1 355 345 338 343 343 341 340 337 322 16 46 307 314 319 322 277 296 311 351 63 11 47 56 288 329 22 104 313 76 9 177 100 46 25 118 208 146
14 10 3 4 2 1 359 355 352 343 332 336 338 334 340 340 277 63 329 336 329 329 334 7 61 9 46 84 14 88 114 61 346 15 12 47 82 148 52 121 99 55 34 117 133
5 2 359 356 355 354 351 350 347 343 329 330 336 339 336 339 65 358 345 342 339 333 244 293 295 27 90 53 23 16 150 346 27 11 1 7 35 77 107 224 199 179 152 140 143
352 350 347 343 346 345 345 343 342 338 326 324 330 334 344 302 89 323 350 341 326 288 318 285 313 73 114 115 47 115 85 25 13 15 14 34 304 334 204 223 140 127 166 153 165
336 334 336 336 339 339 339 337 334 331 315 319 324 337 40 61 34 301 350 346 351 318 35 25 37 5 98 105 93 45 99 66 77 28 9 3 289 252 262 255 269 117 159 169 171
327 331 331 328 335 333 335 332 332 326 313 317 321 335 50 85 264 331 4 360 4 17 16 31 41 347 88 65 77 31 79 113 104 95 1 357 276 5 276 242 207 159 162 184 185
326 335 334 326 332 330 331 331 331 327 312 311 323 314 55 149 343 343 4 304 339 16 69 8 341 58 57 90 305 81 34 98 212 134 55 13 283 231 232 293 172 195 197 182 194
332 343 339 330 327 326 328 333 323 311 295 294 326 347 83 246 321 8 352 31 4 22 76 330 3 83 53 104 61 25 56 30 216 28 275 11 269 308 349 185 227 232 204 209 203
340 344 339 333 328 325 321 328 305 292 266 279 23 116 41 262 20 325 356 338 304 278 335 304 40 102 50 73 30 11 189 288 284 77 299 175 268 271 234 203 248 241 233 201 205
349 344 339 337 333 325 316 272 298 328 283 283 21 52 21 338 323 331 317 332 318 331 2 26 53 70 27 58 219 286 358 313 263 251 241 244 258 268 265 242 244 227 226 206 194
347 337 336 336 337 334 5 26 23 358 37 83 328 3 9 308 279 345 8 328 308 354 73 11 68 97 124 72 81 11 357 280 278 14 287 251 275 278 278 247 248 230 219 216 149
345 329 329 337 345 354 46 69 106 212 97 35 124 116 196 349 353 354 360 50 55 67 344 27 86 65 82 52 63 37 81 290 294 5 336 295 288 282 297 261 214 220 166 140 125
341 331 326 332 343 44 73 70 352 351 107 8 50 47 306 7 53 330 22 54 89 52 23 114 103 28 60 26 52 34 166 321 264 323 301 321 303 332 14 72 72 57 111 112 139
344 333 334 328 60 121 53 354 345 17 82 321 7 0 348 284 35 288 10 98 43 153 30 77 1 68 48 89 79 254 360 47 15 43 268 45 282 307 272 144 116 122 109 130 130
351 345 340 14 231 54 303 328 345 65 67 306 328 269 289 44 306 352 274 34 97 125 88 257 83 63 58 38 36 231 13 47 92 83 48 333 75 269 208 205 226 196 165 160 160
355 353 341 22 55 28 303 338 62 46 266 330 319 355 29 7 32 299 0 64 125 106 48 126 7 62 70 83 56 65 46 28 50 88 18 255 126 281 238 216 183 185 164 161 154
11 355 29 15 111 307 348 60 40 105 340 296 323 16 78 328 360 14 355 13 80 50 357 354 27 21 34 117 3 57 53 344 350 356 226 321 37 245 267 183 181 168 171 160 150
344 7 49 73 322 1 70 50 77 228 228 280 238 11 65 7 10 340 3 27 29 88 99 111 330 71 333 116 181 125 142 155 218 258 265 359 243 258 217 205 117 169 165 162 170
331 39 48 326 344 55 72 57 195 195 242 349 43 65 332 339 146 46 347 175 120 73 146 99 284 142 43 358 96 255 71 169 98 66 50 241 288 298 33 311 274 151 161 185 196
13 81 359 314 351 61 73 165 215 297 350 348 126 121 274 311 26 56 329 290 123 71 132 187 342 239 262 78 9 151 184 43 359 306 281 284 273 236 274 243 244 208 200 203 205
57 59 273 334 50 47 111 172 247 256 351 75 74 84 179 220 203 299 257 295 107 134 91 125 106 287 55 201 184 34 310 9 116 169 194 255 259 216 220 208 201 213 215 203 217
76 55 299 34 55 57 105 148 273 308 24 39 74 132 193 167 246 261 246 215 124 146 169 205 152 239 231 227 171 187 195 161 139 262 236 154 267 237 234 228 197 225 227 233 228
85 252 326 70 109 97 112 65 219 353 306 120 342 228 135 182 338 220 246 165 158 165 178 176 285 356 331 348 355 218 213 172 133 116 219 164 259 320 316 285 242 229 239 246 250
89 42 339 38 59 122 131 135 331 311 274 182 245 66 108 341 235 259 251 213 187 200 177 167 209 184 221 213 144 215 217 209 174 159 244 229 262 263 285 256 262 247 244 254 253
36 80 177 353 342 83 135 158 117 359 326 328 350 187 167 245 276 238 247 277 241 225 200 182 235 231 245 248 229 244 241 214 211 225 222 262 254 252 235 255 265 236 245 260 262
105 103 10 146 298 131 221 223 156 263 175 272 153 206 189 214 215 259 294 274 234 219 176 198 254 163 257 250 259 262 250 235 238 237 246 258 266 255 257 238 256 241 261 269 269
327 16 102 275 140 99 227 179 192 135 287 209 209 261 273 256 229 239 241 238 252 263 209 205 195 158 265 256 301 271 233 235 244 235 229 242 252 276 264 236 243 242 236 238 242